FLOCK 3P-38

Last updated on Wed Feb 14 2018 16:20:33 GMT+0000 (Coordinated Universal Time)

1 42037U 17008CT 18044.94064513 .00001186 00000-0 52016-4 0 9995 2 42037 97.4657 110.5436 0009264 90.4659 269.7639 15.23920886 55286
UTC large
Height (km)
Speed (km/s)
/
Latitude / Longitude
Inclination (degrees)
Orbital Period (minutes)
Azimuth
Elevation
Range (km)
Doppler Factor

Next 0 passes for location: London (51.5072 / 0.1276)

Sorry there are no passes over London.